Location: Unspecified
(0.0000°N, 0.0000°E)
Time: 23:18:12
(UTC+00:00)

deb Delta 104 - Pass Details

Date: 12 March 2026
Orbit: 1430 x 1579 km, 102.3° (Epoch: 12 April)

Event Time Altitude Azimuth Distance (km) Brightness Sun altitude
Rises 18:49:54 0° 206° (SSW) 4,514 ? -10.0°
Reaches altitude 10° 18:56:26 10° 244° (WSW) 3,540 ? -11.7°
Maximum altitude 18:57:27 10° 252° (WSW) 3,521 ? -11.9°
Drops below altitude 10° 18:58:27 10° 259° (W) 3,544 ? -12.2°
Sets 19:05:06 0° 297° (WNW) 4,545 ? -13.8°
